Regional Weather Roundup
Issued by NWS Upton, NY

Current Version | Previous Version | Text Only | Print | Product List | Glossary Off
Versions: 1 2 3 4 5 6 7 8 9 10 11 12 13 14 15 16 17 18 19 20 21 22 23 24 25 26 27 28 29 30 31 32 33 34 35 36 37 38 39 40 41 42 43 44 45 46 47 48 49 50
000 ASUS41 KOKX 220405 RWROKX Regional Weather Roundup National Weather Service New York NY 1200 AM EDT SUN APR 22 2018 Note: "FAIR" indicates few or no clouds below 12,000 feet with no significant weather and/or obstructions to visibility. NYZ071-072-176-178-NJZ106-104-220500- New York City Metro Area CITY SKY/WX TMP DP RH WIND PRES REMARKS Central Park FAIR 53 20 27 VRB7 30.37R Bronx Bot Gard N/A 52 21 30 N5 30.35 Bronx Lehman C N/A 52 23 32 N5 N/A LaGuardia Arpt FAIR 54 21 27 N13G21 30.34R Queens College N/A 54 21 28 N8 N/A Kennedy Intl MOCLDY 52 22 30 NW13 30.35S Breezy Point N/A 52 N/A N/A NW7 N/A Brooklyn Coll N/A 55 21 26 NW8 N/A Staten Island N/A 54 23 30 N6 N/A Newark/Liberty MOCLDY 54 26 34 NW10 30.35R Teterboro FAIR 51 22 31 N12 30.35R $$ NYZ177-179-078>081-220500- Long Island New York CITY SKY/WX TMP DP RH WIND PRES REMARKS Jones Beach N/A 46 N/A N/A NW7 N/A Wantagh N/A 45 39 81 NW6 N/A Hempstead N/A 50 32 50 NW2 30.36 Matinecock Pt N/A 50 N/A N/A N8 N/A Farmingdale FAIR 45 35 68 N3 30.34R MacArthur/ISP FAIR 40 34 79 CALM 30.34R Stony Brook N/A 45 32 61 W1 N/A Shirley FAIR 39 35 86 NW5 30.34S Mt Sinai Harb N/A N/A N/A N/A NW1 N/A Westhampton FAIR 31 25 78 CALM 30.35S East Hampton FAIR 33 29 85 CALM 30.32S Southold N/A 43 32 65 W2 N/A Montauk N/A 47 36 65 W6 30.33R $$ NYZ052-065-067-220500- Hudson Valley CITY SKY/WX TMP DP RH WIND PRES REMARKS White Plains FAIR 44 23 43 N5 30.34R Larchmont Harb N/A 52 N/A N/A NW8 N/A Croton On Huds N/A 48 N/A N/A NW5 N/A Somers N/A 46 19 34 N1 N/A Brewster N/A 43 19 39 N6 N/A Newburgh NOT AVBL Montgomery FAIR 43 19 38 N5 30.35R Otisville N/A 41 23 48 NW3 N/A Warwick N/A 37 28 70 S1 N/A Suffern N/A 48 19 32 NW7 N/A Poughkeepsie FAIR 39 24 55 CALM 30.35R Albany FAIR 45 18 34 NW9 30.36R $$ NJZ001-105-106-008-010-013-015-019>022-104-220500- New Jersey CITY SKY/WX TMP DP RH WIND PRES REMARKS Newark/Liberty MOCLDY 54 26 34 NW10 30.35R Teterboro FAIR 51 22 31 N12 30.35R Caldwell FAIR 50 21 32 CALM 30.36R Somerville FAIR 42 28 57 N3 30.34S Linden FAIR 50 22 33 CALM 30.36R Perth Amboy N/A 54 N/A N/A N7 N/A Sussex FAIR 39 26 59 CALM 30.37R Andover N/A 40 33 76 CALM 30.36S Trenton FAIR 49 26 41 NW3 30.36R Millville FAIR 40 38 93 CALM 30.37S Atlantic City FAIR 47 37 68 SW5 30.37R Wrightstown FAIR 43 32 63 CALM 30.34 Toms River FAIR 36 28 73 CALM 30.37R Belmar FAIR 49 25 39 N6 30.36S $$ PAZ047>061-062-071-220500- Eastern Pennsylvania CITY SKY/WX TMP DP RH WIND PRES REMARKS Philadelphia MOCLDY 50 31 48 CALM 30.37R Allentown FAIR 45 24 43 CALM 30.37R Scranton FAIR 39 24 55 CALM 30.37R $$ CTZ002-004>006-009-010-012-RIZ004-006-007-MAZ004-011-015-220500- Southern New England In CT CITY SKY/WX TMP DP RH WIND PRES REMARKS Bradley Intl FAIR 46 19 34 NW9 30.33R Hartford FAIR 50 19 29 NW9 30.33R Danbury FAIR 39 23 52 NW3 30.35R Wtrbury/Oxford FAIR 46 18 32 N12 30.33S Norwalk Harbor N/A 48 N/A N/A NW3 N/A Bridgeport FAIR 50 19 29 NW5 30.33S Meriden FAIR 48 19 31 NW9 30.33S New Haven FAIR 50 20 30 NW6 30.33R Chester FAIR 48 18 29 NW8 30.32S Groton FAIR 48 21 34 NW8 30.31R Willimantic FAIR 47 21 35 NW5 30.32R In RI CITY SKY/WX TMP DP RH WIND PRES REMARKS Providence FAIR 49 22 34 NW6 30.31R Block Island FAIR 43 36 76 W9 30.31S Westerly FAIR 51 21 30 NW7 30.32R In MA CITY SKY/WX TMP DP RH WIND PRES REMARKS Boston FAIR 48 20 32 N7 30.31R Worcester FAIR 45 16 31 N8 30.30R Westfield FAIR 45 20 36 NW8 30.33R Provincetown FAIR 38 36 92 W5 30.29S WCI 34 Nantucket MOCLDY 42 40 92 W9 30.28S $$ ANZ330-335-338-340-345-350-353-355-220500- Coastal Marine Observations STATION/POSITION TIME SKY/WX TEMP WIND PRES VSBY WAVE AIR SEA DIR/SP/G HT/PER (UTC) (F) (DEG/KT/KT) (MB) (MI) (FT/S) NY Harb Entrance 0350 49 45 330/ 8/ 10 1027.4 2/ 4 20 S Fire Island 0350 46 43 260/ 12/ 12 1027.0 2/ 4 23 SSW Montauk P 0350 44 43 250/ 10/ 12 1026.9 3/ 4 15 E Barnegat Li 0330 44 N/A 2/ 4 Hudson Canyon 0350 45 45 230/ 14/ 16 1027.1 3/ 4 Kings Point 0330 50 47 10/ 8/ 9 1028.4 Execution Rocks NOT AVBL Western LI Sound NOT AVBL Central LI Sound 0345 48 280/ 6/ 6 N/A 1 Robbins Reef 0330 55 320/ 7/ 12 1028.2 $$ >>>>>>>>>>>>>>>>>>>>>>>>>>>> KEY <<<<<<<<<<<<<<<<<<<<<<<<<<< > < > SKY/WX - Sky Condition/Present Weather < > TMP - Temperature in Fahrenheit < > DP - Dew Point in Fahrenheit < > RH - Relative Humidity in Percent < > WIND - Direction (from) and Speed in MPH < > PRES - Mean Sea Level Pressure (inches of Hg) < > WCI - Wind Chill Index < > VSB - Visibility in Miles < > HX - Heat Index < > TC - Temperature in Celsius < > VRB - Varibale Wind Direction < > < >>>>>>>>>>>>>>>>>>>>>>>>>>>> KEY <<<<<<<<<<<<<<<<<<<<<<<<<<<

USA.gov is the U.S. government's official web portal to all federal, state and local government web resources and services.